sat.trackr.live / text

‹ back to catalog

MISR-D 2

NORAD 69915 · 2026-156AY

PAYLOAD ACTIVE UNKNOWN

§ Identity

Operator
Country
US
Launch date
2026-07-07
Launch site
AFWTR
Launch vehicle
Mass (kg)
RCS (m²)

External: N2YO · Heavens-Above · Gunter

§ Orbital elements

Epoch: 2026-09-19T12:40:01.367040Z

Period
96.52 min
Inclination
97.7429°
Eccentricity
0.0005130
Mean motion
14.91865061 rev/d
Perigee alt
588.5 km
Apogee alt
595.7 km
Semi-major
6,970.3 km
B*
1.2021e-4
RAAN
161.7160°
Arg perigee
264.1347°
Mean anomaly
95.9287°
Rev number
1,106

§ Raw data

MISR-D 21 69915U 26156AY  26262.52779360  .00001159  00000+0  12021-3 0  99912 69915  97.7429 161.7160 0005130 264.1347  95.9287 14.91865061 11067

JSON: /api/v1/satellites/69915 · /tle

For live sub-satellite position, see the globe view (requires WebGL).

§ Visibility from observer

Set your observer location to see the next 7 days of passes ≥ 10°. The values pass through the URL so the page stays shareable.

No JS? Fill the form by hand. The geolocation button needs JavaScript.